DW4152 Weather Reports


time (UTC)temp
C
wind
direction
speed
KPH
gust
KPH
rain 1hr
cm
rain 24hr
cm
rain mn
cm
humidity
%
barometer
mb
20260510161545 26 185 0.0 4.8 0.00 0.00 0.00 43 1014.9
20260510160043 25 207 0.0 4.8 0.00 0.00 0.00 46 1015.0
20260510154538 25 138 0.0 6.4 0.00 0.00 0.00 52 1014.9
20260510153035 24 195 0.0 6.4 0.00 0.00 0.00 51 1015.1
20260510151532 24 125 0.0 4.8 0.00 0.00 0.00 56 1015.1
20260510150030 23 84 0.0 4.8 0.00 0.00 0.00 57 1015.3
20260510144529 23 25 0.0 1.6 0.00 0.00 0.00 57 1015.2
20260510143023 22 84 0.0 4.8 0.00 0.00 0.00 60 1015.1
20260510141520 22 235 0.0 4.8 0.00 0.00 0.00 67 1015.2
20260510140016 21 252 0.0 0.0 0.00 0.00 0.00 71 1015.1
20260510134512 20 254 0.0 0.0 0.00 0.00 0.00 77 1015.1
20260510133008 18 255 0.0 1.6 0.00 0.00 0.00 84 1015.2
20260510131504 17 240 0.0 0.0 0.00 0.00 0.00 95 1015.3
20260510130105 16 228 0.0 0.0 0.00 0.00 0.00 98 1015.1
20260510124559 16 236 0.0 0.0 0.00 0.00 0.00 99 1014.8
20260510123054 15 241 0.0 0.0 0.00 0.00 0.00 99 1014.7
20260510121550 15 241 0.0 0.0 0.00 0.00 0.00 99 1014.3
20260510120047 15 241 0.0 0.0 0.00 0.00 0.00 99 1014.1
20260510114553 14 241 0.0 0.0 0.00 0.00 0.00 98 1013.9
20260510113045 13 241 0.0 0.0 0.00 0.00 0.00 98 1013.8
20260510111541 13 241 0.0 0.0 0.00 0.00 0.00 98 1013.5
20260510110039 13 241 0.0 0.0 0.00 0.00 0.00 98 1013.3
20260510104540 13 241 0.0 0.0 0.00 0.00 0.00 98 1013.1
20260510103038 13 241 0.0 0.0 0.00 0.00 0.00 98 1012.7
20260510101536 13 241 0.0 0.0 0.00 0.00 0.00 98 1012.5
20260510100040 13 241 0.0 0.0 0.00 0.00 0.00 97 1012.3
20260510094532 13 241 0.0 0.0 0.00 0.00 0.00 97 1012.2
20260510093039 14 241 0.0 0.0 0.00 0.00 0.00 97 1012.0
20260510091531 14 241 0.0 0.0 0.00 0.00 0.00 97 1012.0
20260510090029 14 241 0.0 0.0 0.00 0.00 0.00 97 1011.9
20260510084531 14 241 0.0 0.0 0.00 0.00 0.00 97 1011.8
20260510083025 14 241 0.0 0.0 0.00 0.00 0.00 97 1011.8
20260510081526 14 241 0.0 0.0 0.00 0.00 0.00 97 1011.7
20260510080022 15 241 0.0 0.0 0.00 0.00 0.00 97 1011.6
20260510074522 15 241 0.0 0.0 0.00 0.00 0.00 97 1011.4
20260510073023 15 241 0.0 0.0 0.00 0.00 0.00 97 1011.3
20260510071533 15 241 0.0 0.0 0.00 0.00 0.00 97 1011.1
20260510070019 15 241 0.0 0.0 0.00 0.00 0.00 97 1011.2
20260510064518 15 241 0.0 0.0 0.00 0.00 0.00 97 1011.2
20260510063023 15 241 0.0 0.0 0.00 0.00 0.00 96 1011.4
20260510061533 15 241 0.0 0.0 0.00 0.00 0.00 96 1011.3
20260510060014 15 241 0.0 0.0 0.00 0.00 0.00 96 1011.3
20260510054513 15 241 0.0 0.0 0.00 0.00 0.00 96 1011.3
20260510053012 15 241 0.0 0.0 0.00 0.00 0.00 96 1011.6
20260510051510 15 241 0.0 0.0 0.00 0.00 0.00 96 1011.7
20260510050009 16 241 0.0 0.0 0.00 0.00 0.00 96 1011.7
20260510044509 16 241 0.0 0.0 0.00 0.00 0.00 96 1011.7
20260510043013 16 241 0.0 0.0 0.00 0.00 0.00 96 1011.8
20260510041505 16 241 0.0 0.0 0.00 0.00 0.00 95 1011.6
20260510040004 16 241 0.0 0.0 0.00 0.00 0.00 95 1011.5
20260510034503 16 241 0.0 0.0 0.00 0.00 0.00 95 1011.7
20260510033002 16 241 0.0 0.0 0.00 0.00 0.00 94 1011.6
20260510031502 16 241 0.0 0.0 0.00 0.00 0.00 94 1011.7
20260510030004 16 241 0.0 0.0 0.00 0.00 0.00 93 1011.5
20260510024500 16 241 0.0 0.0 0.00 0.00 0.00 93 1011.5
20260510023100 17 241 0.0 0.0 0.00 0.00 0.00 92 1011.4
20260510021603 17 241 0.0 0.0 0.00 0.00 0.00 91 1011.4
20260510020100 17 241 0.0 0.0 0.00 0.00 0.00 90 1011.1
20260510014559 17 241 0.0 0.0 0.00 0.00 0.00 89 1011.1
20260510013059 18 241 0.0 0.0 0.00 0.00 0.00 88 1010.7
20260510011559 18 241 0.0 0.0 0.00 0.00 0.00 87 1010.4
20260510010057 19 241 0.0 0.0 0.00 0.00 0.00 84 1010.1
20260510004600 20 241 0.0 0.0 0.00 0.00 0.00 83 1010.0
20260510003111 20 241 0.0 0.0 0.00 0.00 0.00 81 1010.0
20260510001652 21 241 0.0 0.0 0.00 0.00 0.00 80 1009.9
20260510000047 21 241 0.0 0.0 0.00 0.00 0.00 78 1009.8
20260509234600 21 241 0.0 0.0 0.00 0.00 0.00 77 1009.6
20260509233146 22 241 0.0 0.0 0.00 0.00 0.00 76 1009.2
20260509231552 22 240 0.0 0.0 0.00 0.00 0.00 75 1009.3
20260509230055 22 235 0.0 0.0 0.00 0.00 0.00 73 1009.1
20260509224544 22 235 0.0 0.0 0.00 0.00 0.00 71 1009.0
20260509223045 23 234 0.0 3.2 0.00 0.00 0.00 69 1008.8
20260509221543 23 264 0.0 1.6 0.00 0.00 0.00 69 1009.0
20260509220039 23 265 0.0 4.8 0.00 0.00 0.00 68 1008.8
20260509214534 23 223 0.0 1.6 0.00 0.00 0.00 70 1009.0
20260509213031 23 296 0.0 3.2 0.00 0.00 0.00 70 1008.9
20260509211525 23 286 0.0 1.6 0.00 0.00 0.00 70 1008.7
20260509210025 23 306 0.0 0.0 0.00 0.00 0.00 71 1008.7
20260509204523 23 302 0.0 0.0 0.00 0.00 0.00 71 1008.9
20260509203023 23 216 0.0 4.8 0.00 0.00 0.00 69 1009.0
20260509201520 23 242 0.0 4.8 0.00 0.00 0.00 71 1009.0
20260509200021 22 278 0.0 3.2 0.00 0.00 0.00 72 1009.1
20260509194513 21 236 0.0 4.8 0.00 0.00 0.00 73 1009.4
20260509193013 21 301 0.0 0.0 0.00 0.00 0.00 74 1009.6
20260509191510 21 302 0.0 8.0 0.00 0.00 0.00 73 1009.7
20260509190015 22 259 0.0 0.0 0.00 0.00 0.00 72 1009.7
20260509184509 22 259 0.0 3.2 0.00 0.00 0.00 73 1009.6
20260509183018 21 298 0.0 0.0 0.00 0.00 0.00 73 1009.9
20260509181505 21 299 0.0 0.0 0.00 0.00 0.00 73 1010.1
20260509180004 21 300 0.0 0.0 0.00 0.00 0.00 73 1010.1
20260509174505 22 300 0.0 3.2 0.00 0.00 0.00 72 1010.2
20260509173002 21 284 0.0 1.6 0.00 0.00 0.00 72 1010.3
20260509171601 21 285 0.0 3.2 0.00 0.00 0.00 73 1010.5
20260509170058 21 271 0.0 0.0 0.00 0.00 0.00 71 1010.7
20260509164602 22 272 0.0 4.8 0.00 0.00 0.00 69 1010.8
20260509163100 22 254 0.0 1.6 0.00 0.00 0.00 67 1011.2